Theta_e
277 277 276 276 276 276 276 276 276 276 275 276 276 276 276 277 276 276 276 276 276 276 276 276 276 276 276 276 276 276 276 276 277 276 276 276 276 276 276 277 277 277 277 278 278 278 278 279 279 280 280 280 281 281 281 282 281 281 281 281 281 281 281 281 280 281 283 284 285 285 284 282 282 282 283 283 283 284 287 286 286 285 286 286 286
276 277 276 275 275 275 275 276 275 275 275 275 275 275 275 276 276 276 275 276 275 275 275 275 275 275 275 275 275 275 276 276 276 276 276 276 276 277 277 276 276 276 276 276 277 278 278 278 278 279 279 280 280 280 281 281 281 281 281 281 281 281 282 281 281 281 280 283 283 285 282 281 283 282 283 283 283 283 283 285 285 285 285 285 285
276 276 276 275 276 275 275 275 274 274 275 274 275 275 275 276 276 276 276 276 275 275 275 275 275 275 275 275 275 275 275 275 275 275 275 275 275 275 276 275 275 275 275 275 276 277 277 277 278 278 280 279 280 280 280 280 281 281 281 281 281 281 282 282 281 280 280 281 283 283 284 282 282 283 282 284 284 284 283 284 284 285 285 285 284
277 276 276 276 275 275 276 274 275 274 275 274 274 274 275 275 275 275 275 275 275 275 275 275 275 274 274 274 274 274 274 274 274 274 274 274 274 275 275 275 275 275 275 275 276 276 276 276 277 277 278 278 278 279 279 280 280 280 281 281 281 281 282 282 282 281 281 280 282 282 284 282 283 282 282 283 283 283 283 284 283 284 284 284 283
276 276 275 276 275 275 275 275 275 275 275 275 275 274 274 274 274 274 274 274 274 274 274 274 274 274 274 274 274 274 274 274 274 274 274 274 274 274 274 274 274 275 275 275 277 276 276 276 276 277 277 277 277 278 278 278 279 280 280 281 281 281 282 281 281 281 281 280 281 282 283 283 283 282 281 281 282 282 282 283 283 283 283 283 283
276 276 275 275 275 274 275 275 275 275 275 275 274 274 274 274 274 274 274 274 274 274 274 274 274 274 274 274 274 274 274 274 274 274 274 274 274 274 274 274 274 274 275 275 275 276 276 276 277 277 277 276 277 277 278 278 279 279 279 280 280 281 281 281 281 281 281 281 281 281 281 281 282 282 282 282 282 282 282 282 282 282 282 281 281
276 276 275 274 274 275 275 275 275 275 275 274 274 274 274 274 274 274 274 274 274 274 274 274 274 274 274 274 274 274 274 274 273 273 273 273 273 273 274 274 274 275 275 276 276 276 276 276 277 277 277 277 277 277 277 278 278 278 279 279 280 280 280 280 280 280 280 280 281 281 281 281 281 281 282 282 283 283 282 281 281 281 281 281 282
276 275 275 274 274 275 275 275 275 275 274 274 274 274 274 274 274 274 273 273 273 273 273 273 273 273 273 273 273 273 273 273 273 273 273 273 274 274 275 275 275 275 275 276 276 276 276 276 276 277 277 277 277 277 277 277 278 278 279 279 279 279 279 280 280 280 280 280 280 280 280 280 280 279 281 280 280 281 282 282 281 282 281 281 282
276 275 275 275 275 275 275 275 275 274 274 274 273 273 273 273 273 272 272 272 272 272 272 272 272 272 272 272 272 272 272 272 272 273 273 274 275 275 275 275 274 274 274 275 275 275 276 276 276 276 277 279 280 281 281 281 279 278 279 280 279 279 279 279 279 279 279 279 279 280 280 280 280 280 278 278 279 281 283 282 282 283 282 281 281
276 275 275 274 274 274 274 274 274 273 273 273 272 272 271 271 271 270 270 270 270 270 270 270 270 270 270 270 271 271 271 271 273 276 277 275 275 274 274 274 274 274 274 274 274 274 275 275 276 278 278 279 279 280 281 281 282 281 279 280 279 279 279 278 278 278 278 278 278 279 278 278 280 280 280 280 281 282 282 281 281 282 281 281 281
275 274 274 274 274 274 273 273 273 272 272 271 269 269 270 269 268 268 268 268 268 269 269 269 269 269 269 269 268 269 269 270 274 275 277 277 275 274 273 273 273 273 273 273 272 273 273 274 274 275 276 276 276 278 279 280 281 281 282 282 282 280 279 279 279 279 278 278 278 279 278 278 279 280 281 281 281 280 281 282 281 282 281 279 279
274 273 273 273 272 272 272 271 270 269 268 267 267 266 266 266 266 267 267 267 267 267 267 267 267 268 268 267 267 267 268 271 273 274 276 276 276 274 273 272 272 272 272 272 272 272 272 273 273 274 274 274 275 275 277 278 279 280 280 281 281 282 283 281 280 279 279 278 278 278 278 278 279 280 280 281 280 280 280 281 281 281 281 280 280
272 272 271 271 270 270 269 268 267 266 266 266 265 265 265 266 265 265 265 265 266 266 266 266 266 266 266 266 265 266 266 270 272 274 275 275 276 275 272 272 271 271 271 271 271 271 271 270 270 271 271 273 272 272 272 272 275 276 277 278 279 280 281 282 283 281 280 280 279 279 279 279 279 280 281 281 281 280 279 280 280 281 281 281 282
271 270 269 269 269 269 267 265 266 265 265 265 265 265 264 264 264 264 265 265 264 264 264 264 264 264 265 264 264 265 265 268 272 273 274 274 275 274 271 271 271 270 270 270 269 269 269 268 268 268 269 269 270 270 270 271 271 272 272 272 273 275 277 279 279 280 280 279 280 279 281 282 280 281 282 283 282 280 280 279 280 280 280 281 283
269 269 268 268 267 265 266 265 264 264 264 264 263 263 263 263 264 264 263 263 263 263 263 262 263 263 263 263 263 263 264 269 272 273 273 274 274 274 271 270 269 269 268 268 268 268 268 268 268 268 268 269 269 271 271 271 271 271 271 272 273 274 275 275 276 277 277 278 278 279 280 282 282 283 283 283 283 283 283 282 281 281 282 283 283
268 267 267 266 265 266 265 263 263 262 264 263 262 263 262 262 262 262 262 262 262 262 262 262 262 262 262 262 262 262 263 269 270 271 272 273 274 270 269 268 267 267 267 268 268 268 268 268 268 268 268 269 271 274 274 272 272 271 272 273 273 274 275 277 279 280 279 280 280 280 280 281 284 283 284 284 284 284 284 284 282 281 281 280 279
267 267 266 265 264 264 264 263 262 262 262 262 261 261 262 261 261 261 261 261 261 261 261 261 261 261 261 261 261 261 262 265 269 271 272 273 271 268 268 267 267 266 266 267 267 268 268 268 268 268 268 268 271 274 275 275 271 271 271 271 272 273 273 275 278 279 280 281 282 283 284 286 287 287 287 287 286 285 283 281 280 281 279 278 279
266 264 264 263 264 264 263 261 261 261 260 259 260 261 260 260 260 260 260 260 260 260 260 260 260 261 260 260 261 260 261 265 269 270 271 272 271 268 267 267 266 266 266 267 268 268 268 271 270 268 268 268 272 274 275 274 271 271 272 272 271 271 272 274 275 276 279 279 280 280 281 282 284 285 287 288 288 287 284 281 281 282 279 279 278
264 264 264 264 263 262 261 261 260 259 259 260 259 259 259 259 260 259 259 259 259 260 260 259 259 259 260 260 263 262 261 263 267 269 270 271 269 268 268 267 266 266 266 266 267 267 267 269 271 271 270 271 275 275 276 274 272 271 271 271 270 269 271 273 273 274 275 275 275 276 277 279 279 278 279 283 285 286 285 284 284 282 280 280 280
264 263 263 262 262 260 260 260 259 258 259 259 258 258 259 258 258 259 259 259 259 259 259 259 258 259 259 260 260 260 260 260 262 268 270 271 272 269 268 267 265 266 266 266 266 267 267 267 269 273 274 275 275 276 276 276 273 272 272 270 269 269 271 272 272 273 273 274 275 275 275 276 276 277 279 280 281 282 283 284 284 284 282 281 280
262 262 262 261 260 260 259 258 258 258 257 258 259 258 258 259 258 258 257 258 258 258 258 258 258 258 259 259 259 260 260 260 261 268 270 271 272 271 267 267 267 266 266 266 266 266 267 268 268 272 274 275 276 276 277 277 276 273 273 271 272 273 275 273 273 275 273 273 274 275 275 275 276 277 278 279 281 281 282 283 284 284 283 282 281
261 259 259 259 259 257 256 256 257 257 257 257 257 257 257 257 257 257 257 257 257 257 257 257 257 258 258 259 259 259 261 263 262 266 269 270 271 272 269 268 269 268 267 267 268 268 268 269 269 271 274 275 276 276 277 277 277 274 273 277 278 278 275 275 274 274 273 273 273 274 274 274 274 275 276 277 279 281 282 282 283 283 284 284 283
260 259 259 258 257 256 255 255 256 255 256 256 256 256 256 256 256 256 256 256 256 256 256 257 257 257 257 258 258 259 259 260 265 264 268 271 272 273 273 271 273 271 269 268 268 269 269 270 270 273 275 275 276 277 277 277 276 274 277 277 277 277 277 274 274 273 273 273 273 273 273 274 274 275 275 275 277 279 280 282 282 282 283 284 285
258 257 257 256 255 255 255 255 255 255 255 255 255 255 255 255 255 256 256 256 256 256 256 256 256 256 256 257 258 259 259 260 263 267 267 271 272 273 273 274 274 271 270 269 270 270 270 269 270 274 275 276 276 277 277 277 275 277 278 278 278 277 274 272 271 270 271 270 270 270 271 272 274 275 276 277 277 278 280 281 282 282 282 283 284
255 255 254 254 253 254 253 253 253 253 254 254 254 255 255 254 255 255 255 255 255 255 255 255 255 255 256 257 258 259 260 261 261 264 269 271 272 273 273 274 274 274 271 270 270 270 272 275 275 276 276 276 277 277 276 275 276 276 277 277 276 273 271 270 270 269 268 268 269 270 270 271 273 275 276 277 278 279 279 280 281 282 283 283 283
254 253 252 252 253 252 253 254 254 254 254 255 255 255 255 255 255 255 255 255 255 255 255 255 255 256 257 258 259 261 262 263 264 265 267 268 269 271 272 273 273 274 274 272 274 276 276 276 276 276 275 274 272 270 270 270 274 276 277 276 272 271 271 270 270 270 269 269 270 270 271 272 273 274 275 276 276 276 278 278 279 280 281 281 281
254 253 253 253 253 252 252 253 254 254 253 254 255 255 255 255 255 255 255 254 254 254 255 256 256 257 258 260 261 262 263 264 265 266 267 267 267 268 269 269 271 272 270 269 271 270 270 271 271 274 274 275 275 275 275 275 273 272 271 270 269 269 269 269 269 268 269 269 269 269 270 272 273 273 273 274 275 276 278 278 279 279 280 280 280
253 253 252 251 253 252 253 256 256 255 255 254 254 254 254 255 254 255 254 255 255 255 256 257 258 259 259 260 262 264 265 265 266 266 267 267 268 269 269 270 269 269 269 269 269 269 269 272 272 271 270 269 269 269 268 268 269 269 269 269 269 269 271 273 273 271 271 271 271 271 271 271 271 272 274 274 275 276 277 278 278 279 280 280 279
254 251 251 252 252 254 254 254 254 254 254 254 254 255 255 255 255 256 257 257 257 257 257 258 260 261 262 264 264 264 265 265 266 270 270 273 271 270 270 270 270 271 272 275 273 272 272 270 268 267 267 267 267 267 267 267 268 268 268 268 269 269 269 269 269 269 269 269 269 270 270 271 271 272 273 274 275 276 278 278 278 278 279 280 278
251 251 252 251 252 252 252 253 251 253 253 253 253 254 258 263 262 260 260 265 268 269 269 266 267 267 267 267 267 266 265 267 272 273 273 274 274 275 274 275 275 274 275 276 274 271 270 269 269 269 269 268 267 267 267 267 266 267 267 270 270 270 270 270 270 270 270 270 271 271 271 271 271 273 273 274 275 276 278 279 278 279 279 278 278
252 252 251 252 253 253 253 253 253 253 253 254 253 254 254 256 262 265 266 267 268 269 270 271 271 271 269 267 268 271 272 272 272 273 273 274 274 274 274 274 274 275 275 271 269 268 268 266 266 266 265 265 265 265 266 266 267 267 268 269 270 270 270 270 271 271 271 271 271 271 271 272 272 273 273 274 275 276 278 279 279 279 279 278 278
253 252 252 252 254 255 253 254 254 254 253 254 254 253 253 253 255 260 264 265 267 268 269 270 270 270 270 269 268 266 269 271 272 272 272 273 273 273 274 274 274 273 272 272 266 266 265 264 264 264 265 265 266 267 267 267 268 268 268 268 269 270 270 270 271 271 271 271 271 271 271 271 272 273 274 275 276 277 278 278 279 279 279 279 279
252 251 252 253 253 254 254 254 254 253 253 253 253 253 253 253 253 254 257 263 265 266 267 268 268 268 269 269 270 270 270 270 271 271 272 272 273 273 273 272 271 270 270 265 263 262 262 262 262 263 264 265 265 266 267 267 268 268 268 268 268 269 270 271 272 271 271 271 271 271 271 272 272 273 274 276 276 276 277 278 279 279 278 278 278
252 251 252 253 253 253 253 253 253 253 253 254 253 253 253 253 253 254 254 255 256 260 263 264 265 266 267 268 269 269 269 270 270 271 272 272 272 271 270 265 267 268 266 261 261 260 260 260 261 262 263 264 265 265 265 266 267 267 268 268 269 270 271 272 271 271 271 271 271 271 272 272 273 274 275 276 277 277 277 277 277 277 278 278 277
250 253 255 255 252 253 253 254 254 253 253 253 253 254 254 255 255 255 254 253 254 254 255 257 261 265 264 265 267 268 268 269 270 271 271 270 269 269 266 258 257 258 259 259 260 259 260 260 261 262 262 262 263 263 264 265 265 266 267 268 269 271 271 271 271 271 271 271 271 272 273 273 274 275 275 275 276 276 277 277 277 277 277 277 277
252 253 253 254 253 254 254 253 254 253 253 253 254 255 255 255 254 254 254 254 254 254 254 255 257 261 265 266 266 267 268 269 270 270 268 267 267 266 257 256 256 257 258 258 258 259 260 260 260 260 260 261 262 262 263 264 265 265 267 269 270 271 271 271 271 270 271 271 271 272 273 273 274 275 276 276 276 277 277 277 277 277 277 277 277
252 252 253 253 252 253 253 253 252 253 257 257 255 254 254 254 254 253 253 253 253 254 254 255 255 256 259 258 261 265 267 269 269 267 265 265 266 260 256 256 256 257 257 257 258 258 258 258 259 259 260 260 261 262 263 264 265 266 268 268 269 270 271 271 271 271 271 271 271 272 272 273 274 275 275 275 276 276 277 277 277 276 276 277 276
252 252 252 252 252 253 254 254 254 256 255 255 254 252 253 252 252 253 253 253 254 254 253 254 256 254 254 256 260 260 261 266 266 263 261 261 258 256 256 256 257 256 256 257 258 258 258 258 258 259 259 260 261 262 263 264 265 266 267 267 268 269 272 273 274 273 273 272 273 273 274 274 275 276 276 275 275 275 276 275 275 275 275 275 274
251 254 256 257 258 256 254 253 253 251 252 252 251 252 253 252 252 252 252 252 252 252 253 253 253 254 254 256 257 260 263 260 257 256 256 256 256 256 256 256 256 256 257 257 257 258 257 257 258 259 260 261 261 262 263 263 264 265 266 266 267 268 269 271 272 273 274 274 274 275 275 276 276 276 276 276 275 275 275 275 274 274 274 274 274
252 252 253 257 255 256 256 255 253 251 252 251 251 250 251 252 251 251 251 251 252 252 252 253 253 253 255 256 257 262 261 258 256 255 255 255 256 256 256 256 256 256 256 256 257 257 258 258 259 259 260 261 261 262 263 263 264 265 265 266 266 266 268 270 271 271 272 273 274 275 275 275 276 276 276 276 276 276 275 275 274 274 274 274 274
252 252 253 255 255 254 253 253 251 251 250 250 251 250 250 252 252 253 252 252 252 252 253 252 253 253 255 259 265 265 260 257 255 255 255 255 256 256 256 256 256 256 257 257 257 258 258 259 259 260 261 261 262 262 263 263 264 264 265 265 266 266 267 269 269 269 270 270 271 273 274 275 275 275 275 276 277 276 275 275 274 274 274 273 273
249 248 249 249 252 251 250 250 250 253 251 251 250 250 251 252 251 251 252 252 253 253 252 252 253 253 257 263 263 264 259 256 255 255 255 255 255 256 256 256 256 257 257 258 258 259 259 260 260 261 261 262 262 263 263 263 264 264 265 265 265 265 266 267 267 267 268 268 269 270 270 271 273 273 273 275 273 273 272 272 272 272 272 271 271
249 248 249 249 249 249 249 250 250 249 249 249 250 252 253 252 251 252 252 252 252 252 252 252 253 254 254 259 259 260 255 253 255 254 254 255 255 256 256 256 257 258 258 259 259 260 260 260 260 261 262 262 263 264 264 264 264 264 264 265 265 265 265 266 266 266 267 267 268 268 268 269 270 270 270 270 270 270 270 270 270 270 270 270 269
248 249 249 250 250 249 250 249 249 250 249 252 253 253 253 251 251 251 251 251 251 252 252 252 253 253 253 254 255 253 252 253 253 253 254 255 255 255 255 256 257 257 258 259 259 260 260 260 261 262 263 263 264 265 265 265 265 265 265 264 265 265 265 265 265 266 266 266 267 267 266 267 268 268 268 269 269 269 269 269 269 269 269 269 268
247 248 248 248 248 248 248 248 249 249 251 251 249 249 251 250 251 251 251 251 251 252 252 252 253 252 252 252 252 252 252 252 253 254 254 254 254 254 255 255 256 257 257 258 259 260 260 260 261 261 262 263 264 265 265 266 266 265 265 265 264 264 265 265 265 266 266 266 266 266 266 266 264 265 266 267 268 268 268 268 268 268 268 267 267
247 248 249 248 248 249 249 247 250 249 249 249 249 250 250 250 249 250 250 251 251 251 251 252 251 251 252 251 251 252 252 252 252 253 254 254 254 254 254 255 255 256 257 257 258 259 259 260 260 261 262 263 263 264 265 266 266 266 266 266 266 265 266 266 266 266 266 266 266 266 266 266 266 266 267 267 267 267 267 267 267 267 267 267 267
247 248 249 249 248 249 249 250 248 248 248 249 250 250 251 250 250 251 251 252 252 251 251 250 250 250 250 250 250 251 252 252 252 252 252 253 253 253 253 254 254 255 255 256 257 258 258 259 260 260 261 262 263 264 264 265 266 266 267 267 266 266 266 267 266 266 265 266 266 265 265 265 265 265 266 266 266 266 266 266 266 266 266 267 267
246 247 248 248 248 248 248 248 249 252 250 251 250 251 251 251 250 250 248 249 249 249 250 249 249 249 250 250 250 251 251 251 252 252 252 252 252 253 253 253 254 254 255 255 255 256 257 258 258 259 261 262 263 264 264 265 265 266 266 267 267 267 267 267 266 266 265 265 265 265 265 264 264 264 265 265 264 265 265 265 266 266 266 267 267
246 247 247 248 248 249 249 250 250 249 250 250 250 250 250 249 249 248 249 248 248 249 248 249 248 249 248 249 250 250 251 251 251 251 251 252 252 252 252 253 253 253 254 254 254 255 255 256 257 258 260 261 262 264 264 265 265 265 266 267 267 267 267 267 267 266 265 264 265 265 264 264 264 264 264 264 264 265 265 265 265 266 266 266 267
248 248 248 248 249 250 249 249 250 249 249 250 249 249 249 248 248 248 248 248 248 248 247 248 249 248 248 249 250 250 250 250 250 251 251 251 251 252 252 252 252 252 253 253 253 254 254 255 256 257 259 260 261 263 264 265 265 265 265 266 267 267 267 267 267 267 266 264 264 264 264 264 264 264 264 264 264 265 265 265 265 265 265 265 264
249 248 248 249 249 250 249 249 249 250 249 249 248 248 248 248 248 247 247 247 247 248 248 248 247 247 248 248 249 249 249 250 250 251 251 251 251 251 251 251 251 251 252 252 253 253 253 254 255 256 257 259 260 261 263 265 265 266 266 266 267 267 268 268 267 267 267 266 264 264 264 264 263 264 264 264 264 264 264 264 264 264 264 264 263
Wind_Speed
3 3 3 3 3 3 2 2 1 1 2 1 3 2 3 3 3 3 4 5 4 5 5 5 6 6 7 7 8 9 9 10 8 7 7 7 6 5 5 5 6 7 7 10 7 6 7 8 10 9 6 6 7 7 7 7 6 6 6 6 7 7 7 9 12 16 12 5 10 9 7 5 7 6 9 8 7 7 9 9 9 9 9 9 10
4 3 2 3 3 3 2 1 1 1 2 2 4 3 4 4 3 4 4 4 3 4 4 4 4 4 5 6 6 6 6 7 8 8 9 11 11 7 8 8 8 8 6 8 8 6 8 9 10 9 6 8 9 8 7 7 7 7 7 7 8 8 7 8 11 12 16 7 8 9 8 4 10 3 7 8 9 7 9 10 8 9 9 9 9
4 4 4 4 3 2 1 1 2 3 4 3 4 4 4 4 4 4 5 4 4 4 4 5 5 5 5 5 5 5 5 6 5 5 6 7 9 10 9 10 10 11 11 11 9 7 8 9 10 8 6 9 9 9 7 8 7 8 10 7 8 9 7 9 10 13 14 12 7 10 9 6 9 9 6 9 8 8 10 10 9 8 9 9 9
5 4 4 3 2 2 1 1 2 2 3 2 3 3 3 4 4 4 4 4 5 4 4 4 4 5 5 6 5 5 6 5 5 4 5 6 8 9 9 9 9 10 10 11 12 11 10 11 10 7 6 9 10 10 8 7 8 9 10 9 8 9 8 8 10 11 11 13 9 8 9 9 10 7 6 7 7 8 8 9 6 9 8 7 9
5 4 4 4 2 1 1 0 1 1 1 1 2 2 3 3 3 4 4 4 4 4 4 3 4 4 6 6 7 6 6 6 6 6 5 5 7 8 8 8 9 10 10 11 10 11 12 12 13 11 8 10 10 9 8 9 9 9 10 10 9 8 8 8 10 10 12 14 13 8 7 9 8 8 5 7 7 8 7 9 8 9 9 7 7
5 5 4 4 3 1 1 1 1 1 1 2 3 3 3 3 4 4 4 5 5 4 5 5 5 7 6 6 6 6 6 5 6 7 7 7 7 8 8 9 9 10 10 11 10 10 10 12 13 12 11 11 12 11 9 10 10 10 11 11 10 9 10 10 9 11 12 14 13 12 7 9 9 9 6 7 8 9 8 8 6 6 7 7 8
5 5 4 4 3 2 1 1 0 1 2 3 3 3 4 4 4 5 4 4 6 7 6 6 6 6 7 7 7 7 7 6 7 7 6 6 8 9 10 10 10 10 10 11 11 11 11 11 12 12 12 12 13 13 12 11 10 12 11 11 11 10 11 11 10 11 12 13 13 11 10 8 8 12 8 6 9 10 11 9 9 6 6 8 10
5 5 4 3 3 2 1 1 1 2 2 3 3 3 3 4 4 4 4 5 6 6 7 8 7 6 7 7 7 7 8 7 6 6 7 8 9 9 10 10 11 11 10 11 11 11 11 11 11 12 13 13 13 13 13 12 11 12 11 10 10 11 11 11 11 11 12 12 13 13 9 10 7 7 6 1 6 9 7 7 11 9 9 9 10
5 4 4 3 2 2 2 2 2 2 1 1 2 3 3 3 3 4 4 5 5 5 6 6 9 9 8 7 8 7 7 8 6 7 10 11 9 11 11 12 12 12 12 11 11 10 10 10 11 11 13 19 23 22 20 19 14 13 13 11 11 11 11 11 11 11 12 12 14 12 11 11 10 9 7 7 10 13 7 7 11 11 6 6 9
5 4 4 3 2 1 1 1 1 2 2 3 3 3 3 4 4 4 4 4 4 5 5 6 7 8 10 10 8 8 8 6 10 19 17 12 12 11 11 11 11 11 12 13 13 11 11 11 13 23 26 26 25 25 26 26 25 19 15 13 12 11 12 12 12 11 11 13 13 13 13 13 12 10 10 10 9 8 8 6 11 9 6 9 9
4 4 4 3 3 2 2 1 1 2 2 3 3 4 6 5 5 6 5 6 6 6 6 7 6 7 8 9 10 9 8 8 19 19 20 22 16 13 12 13 13 13 10 12 11 14 11 11 12 18 21 22 21 26 27 27 26 26 27 27 23 18 14 14 14 12 13 13 13 13 13 15 15 11 10 9 8 9 10 9 10 9 9 9 13
5 4 4 3 3 3 2 2 2 2 3 3 3 4 4 5 5 6 6 8 8 6 7 6 7 7 8 8 8 8 9 13 19 20 21 22 20 15 14 12 13 14 14 13 13 13 14 14 13 11 10 12 13 15 18 23 25 26 27 26 26 28 26 19 16 14 13 13 14 15 14 16 15 12 10 8 8 7 9 10 11 11 11 11 11
6 5 3 3 3 3 2 2 1 2 2 3 3 4 4 5 5 6 7 6 6 6 8 8 8 7 8 10 10 9 8 14 18 21 21 22 22 20 14 14 14 15 15 16 16 15 15 15 15 13 12 20 17 15 16 17 23 29 30 31 31 30 27 29 28 21 15 16 15 17 16 15 16 15 10 10 5 9 7 11 10 10 12 13 13
6 5 3 3 3 3 2 2 2 2 3 4 4 5 5 6 5 4 5 6 6 7 6 7 7 7 8 9 10 10 9 14 20 21 22 23 23 21 14 15 15 16 16 15 15 15 15 15 15 15 13 13 13 14 14 16 15 15 14 14 14 20 26 29 29 31 27 19 17 18 17 14 16 15 14 9 10 10 8 11 9 11 12 15 15
5 4 4 3 3 2 3 2 2 3 3 4 4 5 5 6 6 6 6 6 8 8 8 9 7 6 7 8 10 11 9 18 21 23 24 24 24 21 15 14 14 14 14 14 15 15 15 14 15 16 15 14 13 16 17 17 15 13 14 14 14 14 12 13 14 13 14 15 17 18 19 18 18 17 16 13 13 14 11 11 11 12 12 12 13
5 3 4 3 2 2 3 3 3 3 4 4 4 6 5 5 7 7 6 6 5 6 7 5 8 8 7 8 10 12 10 18 22 23 25 24 26 16 13 14 14 14 14 14 14 14 14 14 14 15 15 16 19 25 22 18 16 16 16 14 13 13 15 15 21 21 19 17 15 16 16 19 21 19 17 14 13 13 13 11 8 8 9 11 13
4 4 3 2 3 3 3 3 3 4 4 5 5 5 6 6 5 4 7 7 7 7 7 7 7 8 9 8 10 12 10 14 21 23 24 26 20 12 13 12 12 14 15 14 14 14 14 14 14 15 17 17 21 26 26 25 18 16 15 17 15 15 13 12 18 25 28 30 32 35 35 35 35 35 35 39 26 16 12 12 14 10 11 13 12
3 3 3 2 3 3 4 2 3 4 4 4 5 5 4 4 4 4 6 8 9 7 7 8 7 6 8 10 8 12 13 15 22 24 25 24 21 14 12 11 13 13 14 14 13 13 15 24 22 18 18 19 25 28 28 24 17 16 15 15 16 14 13 9 10 14 25 29 32 34 34 34 35 35 34 33 36 25 16 17 14 11 15 12 14
3 3 3 3 3 2 2 2 2 3 4 4 4 5 5 5 5 4 5 6 8 7 7 8 8 7 7 9 14 15 13 15 21 23 25 24 19 12 11 10 11 13 13 13 14 15 16 16 25 24 23 24 32 30 29 24 17 14 14 16 17 16 11 11 13 14 12 12 14 15 18 22 22 19 22 34 37 27 19 17 14 15 15 14 15
3 4 4 3 2 1 2 2 3 3 5 5 4 4 4 5 5 5 6 5 8 7 7 8 9 9 7 9 9 9 12 13 14 25 24 24 24 15 11 11 12 14 13 12 13 12 13 12 17 25 31 32 30 30 28 28 21 16 13 12 13 17 11 13 15 15 15 14 13 13 15 15 16 17 14 15 19 21 20 19 17 16 15 15 15
4 4 3 2 2 2 2 2 4 4 4 5 5 4 4 6 6 6 7 7 7 8 8 8 9 9 7 8 8 9 9 13 14 23 24 24 25 21 12 12 12 13 13 13 11 11 10 11 10 20 28 29 30 31 31 29 27 20 16 14 15 18 21 15 16 23 15 14 13 14 13 12 12 13 14 15 14 14 16 18 18 18 17 16 16
4 2 1 0 1 2 3 4 3 4 4 4 6 6 4 5 6 7 6 7 9 10 8 8 9 9 8 7 8 9 11 17 15 20 24 25 24 27 16 12 14 14 14 12 11 10 10 10 10 20 31 31 31 31 32 30 31 20 17 26 31 31 22 16 13 10 10 12 13 12 13 13 13 12 13 14 16 14 15 16 16 18 17 16 17
2 1 0 1 1 3 3 4 5 4 5 4 5 7 5 5 6 6 7 8 9 10 8 8 8 10 9 7 7 8 10 11 19 18 23 25 27 26 27 22 27 18 14 13 11 13 12 14 15 27 30 31 31 32 32 34 28 19 29 30 30 32 26 14 12 11 11 10 11 13 12 11 10 11 11 13 13 15 16 15 15 16 16 16 17
2 1 1 1 2 3 4 4 4 4 5 5 5 6 7 6 6 6 7 7 8 9 7 7 8 9 10 11 8 7 9 9 14 21 21 26 27 28 27 28 28 18 16 14 13 14 14 14 16 29 33 33 33 32 31 29 21 28 29 30 30 28 16 12 11 11 12 12 12 13 13 12 11 12 11 11 12 13 14 16 17 18 17 15 16
2 1 2 3 4 4 4 4 4 5 5 5 5 6 7 5 7 5 5 7 7 8 8 6 7 9 10 11 11 9 9 9 10 14 23 26 28 28 28 29 28 29 20 14 15 15 22 33 35 34 32 33 33 32 25 22 26 27 29 29 28 14 11 10 11 12 12 13 13 13 13 13 12 12 12 14 15 14 15 16 16 17 16 16 16
1 2 3 3 5 4 4 5 5 5 6 5 5 6 6 6 7 7 6 7 7 7 8 7 7 8 10 10 11 11 11 10 11 11 13 17 18 24 29 29 29 30 28 23 30 35 34 34 37 36 32 26 19 14 12 13 22 28 31 29 15 10 9 9 10 10 12 13 13 14 13 12 11 11 14 14 14 16 14 15 15 17 15 14 13
3 3 4 4 4 4 4 5 5 5 5 5 5 5 5 6 7 7 6 7 7 7 8 7 8 8 10 11 12 12 11 10 11 12 11 11 11 14 16 16 23 25 19 15 19 18 22 24 21 27 25 31 31 28 25 24 19 16 12 11 10 11 11 10 11 13 14 13 15 14 13 12 11 11 12 13 14 13 14 16 16 16 15 14 14
4 4 5 4 4 4 5 6 6 5 5 5 5 5 6 6 7 8 7 7 7 8 7 8 9 10 10 10 12 11 11 9 9 9 10 10 12 11 11 11 10 10 12 12 13 15 16 20 22 15 13 13 13 10 10 11 12 13 12 11 12 13 16 22 22 16 14 13 12 13 12 11 12 12 12 12 13 14 13 14 17 17 16 14 15
4 4 4 4 5 4 5 5 5 5 6 5 6 6 7 7 8 9 9 8 9 9 8 8 10 10 9 10 10 8 10 10 10 15 19 23 20 17 13 12 12 11 15 26 20 13 10 9 7 9 9 11 10 10 10 10 11 12 14 13 12 12 12 10 12 12 14 13 14 13 14 12 12 13 13 15 14 14 13 15 16 17 17 16 17
4 5 4 4 5 4 4 5 4 5 6 6 6 7 10 16 12 9 7 13 19 20 18 11 10 10 8 7 7 10 9 12 24 29 27 27 28 30 28 29 28 23 26 32 22 14 11 10 10 9 9 9 9 9 10 9 10 10 11 14 14 11 12 11 12 13 12 12 13 12 12 12 15 13 12 14 15 16 18 17 15 15 16 15 15
4 4 4 4 5 4 4 5 5 5 5 6 6 7 7 8 15 20 19 17 18 19 19 22 23 22 14 11 11 21 25 27 27 26 27 26 27 28 27 28 29 28 28 20 14 10 11 10 11 10 10 9 10 10 10 10 11 11 11 11 11 13 14 13 12 12 13 12 12 12 12 11 12 13 13 16 17 18 14 14 15 15 17 17 16
5 4 4 4 4 4 4 4 5 5 5 5 6 6 7 9 9 11 14 14 15 17 19 20 19 16 17 17 15 11 17 23 25 25 26 26 26 27 26 27 27 26 26 24 12 9 9 10 10 10 8 9 9 10 9 11 11 12 12 12 13 11 12 11 12 12 12 12 11 12 11 13 12 13 14 16 16 15 13 13 13 14 15 14 13
5 4 4 4 4 5 4 4 4 5 5 6 5 5 6 6 10 13 11 13 17 16 15 13 11 12 18 20 21 20 19 20 24 24 25 25 25 24 25 26 24 24 23 11 8 10 9 10 10 10 10 11 10 10 11 11 11 11 11 12 13 13 12 14 15 13 11 10 11 10 11 11 13 15 15 15 16 13 11 10 11 13 12 11 11
5 4 4 4 4 4 4 4 5 5 5 5 5 6 6 6 7 7 10 13 16 16 10 6 9 14 17 19 20 19 20 22 23 24 24 24 24 23 22 16 20 19 14 9 9 10 10 9 9 8 11 10 12 9 11 11 12 12 12 13 13 14 13 14 11 10 9 10 10 10 11 10 11 12 12 13 11 12 11 10 9 8 8 10 10
4 5 7 5 4 4 4 5 5 5 5 5 5 6 6 6 5 6 7 8 9 10 13 16 17 17 16 15 17 20 21 22 22 22 23 22 21 22 20 11 12 11 9 5 7 7 9 9 9 11 11 11 12 12 12 12 13 13 13 13 13 13 13 10 10 9 9 9 9 10 10 11 11 11 11 12 12 12 10 10 9 10 9 7 7
4 3 3 4 4 4 4 5 5 5 5 6 6 6 5 5 7 6 6 6 7 9 11 10 11 18 24 20 20 22 23 22 21 22 20 20 20 21 11 10 10 10 10 9 9 9 8 9 10 11 10 11 11 11 12 13 12 12 13 13 14 13 12 11 10 9 9 9 10 11 11 11 11 11 10 13 14 13 10 9 9 9 10 10 10
4 4 3 3 4 4 5 5 5 6 7 6 5 4 5 6 6 5 6 6 7 7 8 9 11 13 12 7 13 22 24 21 21 19 17 18 20 11 5 7 8 9 10 10 10 10 11 9 9 9 10 11 11 11 12 13 13 13 15 15 14 15 13 11 10 9 9 9 9 10 11 11 12 12 11 11 10 9 9 9 8 9 9 11 10
4 4 4 3 3 5 5 5 6 7 6 4 4 4 5 5 5 5 6 6 7 7 8 8 8 8 11 13 16 12 14 19 21 12 9 11 8 6 6 6 7 7 9 9 9 10 11 11 9 10 11 10 12 10 12 12 13 13 13 13 14 15 21 17 15 12 11 10 11 11 11 11 11 10 10 9 8 7 6 5 6 7 6 5 5
4 6 8 9 7 5 5 5 5 4 5 5 4 5 6 6 5 5 5 6 6 6 7 7 7 8 9 9 11 13 13 10 11 12 12 10 8 7 7 7 7 8 8 8 9 9 9 10 11 10 10 10 10 12 11 11 11 12 13 13 14 13 14 12 12 11 10 9 9 10 9 9 9 9 9 8 8 8 7 6 5 5 6 7 7
4 3 4 8 5 6 5 6 6 5 7 4 5 4 5 6 5 5 6 5 6 6 6 6 7 7 8 9 9 9 9 10 9 10 11 11 11 10 8 9 9 9 9 10 9 9 10 10 10 10 11 11 11 11 11 11 11 11 12 12 13 13 13 12 11 11 10 10 10 9 9 9 9 9 8 7 7 7 7 6 6 6 6 6 7
4 3 3 5 6 5 5 5 5 5 5 6 6 6 5 6 6 6 5 6 6 6 6 7 7 7 7 12 18 16 7 7 9 9 9 10 10 10 10 9 9 10 9 9 9 9 9 10 11 10 10 10 10 10 11 11 10 10 10 11 11 12 12 12 11 10 11 11 10 10 9 8 8 7 8 7 7 7 6 5 5 5 5 5 4
5 3 3 4 5 4 5 6 7 6 5 6 5 5 6 6 6 5 6 5 6 6 6 6 7 6 11 19 16 17 9 5 6 8 8 8 8 9 9 9 8 8 9 9 10 10 10 10 10 10 11 11 11 11 11 11 11 11 10 9 10 12 11 11 11 11 12 11 11 9 8 7 6 5 6 5 3 2 2 3 4 4 4 5 5
5 4 4 5 4 5 5 6 5 5 5 5 5 5 6 6 5 6 6 6 5 6 6 7 7 6 7 12 13 14 6 5 5 7 7 7 8 8 8 9 9 9 9 9 9 9 10 10 11 10 11 11 11 10 10 11 11 11 11 10 10 10 11 11 11 11 11 11 10 10 9 7 6 4 4 3 2 1 1 2 3 3 4 5 6
4 4 5 4 5 4 5 5 5 6 5 6 6 6 5 5 5 5 5 5 5 5 5 6 6 7 7 8 8 7 5 6 6 6 7 8 8 8 9 9 9 9 9 9 9 9 10 10 10 10 11 11 10 11 10 9 10 10 10 11 10 12 11 10 10 10 9 9 9 9 8 7 6 5 4 3 2 1 2 2 3 4 5 5 6
4 4 4 5 4 5 6 4 5 5 7 6 4 5 6 5 5 5 5 5 6 6 5 5 5 6 7 7 6 6 6 6 7 8 7 7 8 8 8 9 9 10 10 9 9 10 10 10 10 11 11 11 11 11 11 10 9 9 9 10 9 10 11 11 9 9 9 8 8 7 7 6 6 6 5 4 3 2 3 2 3 4 5 5 6
4 4 5 4 5 6 6 5 6 4 5 5 5 5 5 5 5 5 6 6 6 5 5 5 5 5 6 6 6 7 6 6 7 7 8 7 8 8 8 8 9 9 9 9 9 10 10 10 10 11 11 11 12 11 11 11 11 10 9 9 9 9 10 10 9 9 9 9 8 7 6 6 6 5 5 4 4 3 3 4 3 3 4 4 5
4 5 4 5 5 6 6 6 4 5 5 5 5 5 5 5 5 5 6 6 5 6 5 5 6 6 6 6 6 6 7 6 7 7 8 8 8 8 8 9 9 9 9 9 9 9 10 10 11 11 12 11 11 12 11 11 11 11 10 9 9 10 10 10 9 8 8 8 7 6 6 5 6 5 6 5 4 4 5 4 4 5 4 5 5
4 5 4 5 4 5 5 5 5 5 5 5 5 5 5 5 5 5 6 5 5 5 5 5 6 6 7 6 6 6 6 6 6 7 7 7 7 8 8 9 9 9 9 9 9 9 9 9 10 11 12 12 12 11 11 11 11 12 12 10 10 11 14 15 9 9 8 8 7 7 6 6 5 6 5 5 5 4 5 5 5 5 5 5 5
4 5 4 5 5 5 6 5 6 5 5 5 4 5 5 5 5 5 5 5 5 5 6 6 6 6 6 6 6 6 6 7 7 7 7 7 7 8 8 8 9 9 9 9 9 9 10 10 10 10 11 11 12 11 11 11 12 12 13 12 15 20 17 19 13 10 12 8 7 7 6 6 6 6 6 6 6 5 5 5 5 5 5 5 5
4 4 4 4 6 6 6 5 5 5 5 5 5 5 5 5 5 5 5 5 5 5 6 6 6 6 6 6 7 6 5 6 7 7 7 7 7 7 8 8 9 8 8 9 9 9 9 9 10 10 11 11 12 12 11 10 11 12 12 15 21 20 18 17 16 18 12 7 8 7 6 6 6 6 6 6 6 6 7 6 6 6 6 7 7
5 4 5 5 5 5 4 4 5 5 5 5 5 5 5 5 5 5 5 5 5 6 6 6 6 6 6 6 6 6 6 6 6 6 7 7 7 8 8 8 9 9 9 9 9 9 9 9 9 10 10 10 11 11 11 11 10 12 17 23 23 21 20 18 13 16 19 13 8 8 7 8 7 7 7 6 6 7 8 8 7 7 7 7 7
Wind_Direction
111 141 138 128 105 99 91 89 84 101 83 60 51 27 14 11 11 358 357 1 4 360 358 351 345 344 340 343 343 340 341 341 347 345 343 335 333 318 313 316 310 305 304 307 310 305 297 291 294 293 290 286 278 278 278 273 269 256 252 245 247 240 233 249 260 273 278 226 274 270 270 251 274 218 246 243 251 243 233 232 232 230 232 229 229
150 161 147 146 148 168 177 172 137 73 59 38 29 17 8 7 357 2 10 336 2 345 342 337 335 329 333 328 329 329 328 332 336 343 338 336 331 334 329 323 315 308 302 297 298 298 295 294 290 289 290 284 284 278 267 273 269 267 259 244 248 250 224 241 257 264 279 273 272 277 278 212 265 188 231 241 243 237 237 233 227 225 229 228 229
182 171 165 158 166 176 129 62 40 42 34 12 15 0 358 351 356 3 347 341 343 344 335 334 330 327 324 319 317 320 321 323 328 329 323 322 320 321 323 322 319 317 317 307 302 298 293 288 284 287 291 286 282 279 276 272 268 263 265 249 250 252 243 230 253 267 271 273 251 274 273 258 238 259 219 243 237 231 236 237 226 224 226 227 230
193 178 170 167 163 91 67 28 48 34 33 2 5 341 340 337 337 346 329 330 330 326 331 319 323 325 318 316 317 315 320 319 317 311 306 310 310 307 308 307 305 304 301 304 308 309 302 297 290 285 281 278 280 283 279 270 267 270 268 265 253 256 250 242 239 256 271 279 264 249 270 266 265 251 253 249 248 244 236 245 228 230 228 220 225
186 188 174 171 179 140 151 118 77 20 16 5 354 336 333 326 330 329 326 327 322 322 318 317 313 317 319 316 316 316 315 314 311 307 304 297 293 294 293 292 290 289 289 290 293 297 297 294 297 299 291 283 279 275 274 272 272 271 269 268 266 261 260 249 254 252 265 269 274 255 250 261 260 265 225 249 255 250 248 242 232 231 232 224 221
197 178 184 169 189 178 173 99 73 11 5 5 1 351 346 353 347 342 342 334 332 329 325 333 331 322 322 315 311 311 312 311 304 304 305 299 290 285 284 283 283 281 283 282 282 281 283 287 289 293 294 289 288 285 278 273 271 267 269 272 270 267 266 264 257 262 262 266 269 277 245 255 269 261 234 222 246 255 252 248 249 234 231 233 226
195 186 186 182 176 181 150 119 80 15 7 0 359 3 3 356 356 348 342 338 332 331 333 330 329 322 318 319 318 318 319 313 311 308 305 296 291 290 289 285 280 280 278 278 277 276 275 278 282 284 285 286 286 287 289 284 277 273 265 268 267 268 269 268 264 262 264 269 270 262 267 248 241 266 253 209 236 240 251 255 252 235 231 228 242
195 194 181 179 175 140 122 117 57 19 6 9 5 4 3 357 354 339 340 337 333 333 332 330 324 324 317 319 318 321 317 317 315 316 310 305 301 296 293 293 292 289 285 281 279 277 276 275 274 277 279 281 283 285 285 286 284 279 275 270 267 266 263 266 267 265 267 268 267 274 259 264 252 241 270 191 256 259 237 246 257 245 224 224 229
196 191 182 162 128 98 48 29 33 16 7 12 18 12 359 347 336 334 327 326 327 327 327 328 325 322 320 318 323 323 320 320 325 324 318 312 309 305 303 299 297 295 291 284 278 275 273 273 273 273 275 279 279 282 283 284 286 286 282 277 272 267 267 264 264 265 264 266 272 270 273 266 256 254 241 226 231 247 243 202 245 251 246 239 237
187 183 164 141 102 84 66 35 13 5 18 10 18 359 349 340 332 331 328 324 326 324 329 330 322 320 322 323 325 325 320 320 321 320 318 316 314 310 303 297 295 294 294 294 291 285 280 280 282 286 288 287 287 286 286 286 284 282 283 284 279 272 265 264 263 260 262 265 264 270 270 265 263 251 249 238 235 244 249 212 240 248 225 244 251
178 158 141 134 133 115 104 71 45 33 20 13 359 356 345 340 337 334 335 337 333 335 332 326 328 325 322 321 323 323 320 320 319 319 317 316 313 307 302 299 297 291 285 288 291 295 290 283 281 284 284 284 284 284 283 283 282 282 282 280 279 277 275 268 261 256 259 259 265 265 263 268 264 257 251 253 237 224 233 229 239 243 235 235 254
148 135 139 141 136 115 110 98 67 37 21 4 347 340 335 337 337 335 334 335 335 335 331 329 328 324 320 318 315 315 315 317 317 315 314 313 311 307 303 300 300 297 297 296 296 297 299 302 301 303 299 299 299 293 287 285 284 283 281 281 280 277 273 272 274 270 260 260 261 259 264 262 269 264 259 252 249 228 226 228 229 232 237 237 246
135 134 145 130 114 107 99 84 69 36 6 348 333 336 340 337 339 338 333 329 326 329 328 327 322 325 320 318 315 312 308 314 313 311 311 311 309 307 299 296 294 294 296 298 298 299 303 302 302 299 301 304 304 302 300 296 290 286 283 281 279 278 278 277 276 275 279 271 263 263 256 264 266 263 257 255 244 236 217 229 227 231 233 238 243
132 139 131 118 111 105 88 63 41 9 352 347 345 341 343 337 332 326 320 328 327 322 322 319 319 320 320 315 309 309 306 311 311 312 311 310 308 305 297 296 293 292 294 296 297 298 299 298 298 297 299 300 296 295 290 286 283 278 272 267 267 270 271 271 269 268 268 269 269 267 266 259 259 266 262 255 255 249 231 234 220 229 230 234 239
133 141 128 121 110 91 77 59 27 357 349 345 343 339 335 329 332 331 330 326 326 321 322 319 316 315 313 310 306 305 306 310 312 312 310 309 307 305 299 297 295 293 293 293 291 292 293 293 293 294 297 298 295 296 296 294 289 277 270 267 263 260 256 256 259 262 263 262 266 269 271 268 266 265 265 255 247 253 248 244 231 230 236 243 249
133 131 117 115 99 79 61 37 7 352 345 341 339 331 330 329 325 327 321 315 307 308 303 304 306 308 307 306 303 299 302 310 309 309 307 307 307 305 301 296 293 291 291 291 292 291 292 290 292 292 293 293 295 295 294 293 291 291 289 283 274 266 263 264 271 272 272 271 266 262 261 263 264 265 263 258 253 253 255 260 258 245 242 242 243
135 128 120 115 91 64 50 23 354 345 341 335 327 323 324 321 319 323 311 308 307 306 301 301 303 303 304 302 300 297 297 305 304 305 306 306 307 299 296 294 293 293 290 291 290 289 289 289 290 293 293 293 293 294 294 293 287 281 275 273 271 270 270 271 276 279 278 275 273 271 270 268 267 265 263 263 260 254 252 252 246 239 240 243 247
135 118 115 103 73 63 42 24 348 333 329 320 312 308 309 301 298 307 299 306 300 295 298 298 293 294 296 297 295 296 296 300 303 304 304 304 301 297 294 286 287 289 291 287 288 288 289 291 291 291 289 287 289 288 287 287 284 282 280 279 278 275 274 275 268 267 269 270 271 272 274 275 276 275 272 266 262 257 247 246 244 237 241 234 245
130 123 111 89 74 59 38 14 337 318 310 299 299 298 299 294 295 298 284 284 285 293 293 291 291 287 282 285 294 295 293 297 300 301 300 300 300 291 287 284 283 286 289 290 288 287 285 282 282 285 285 284 286 288 286 284 281 282 286 285 284 284 290 302 288 285 281 275 269 270 268 268 268 267 268 270 267 265 257 253 248 239 240 236 238
128 105 86 75 59 37 17 352 318 304 293 294 290 284 290 296 291 292 288 281 287 288 286 285 288 287 284 284 284 282 287 289 293 297 298 297 298 296 288 288 288 287 281 276 283 272 263 260 271 279 286 286 283 285 285 283 282 280 277 272 273 276 278 272 272 276 278 275 270 264 262 265 270 272 270 260 255 253 252 249 247 243 240 238 236
91 81 78 53 22 357 346 316 294 288 280 284 289 290 289 289 295 290 290 288 282 284 283 284 284 283 281 277 279 280 276 285 287 293 294 296 297 298 289 282 281 281 280 277 268 266 261 258 248 269 280 283 283 283 285 285 283 281 276 272 269 276 281 274 270 274 272 271 268 271 267 261 259 259 263 268 263 253 246 243 243 242 239 238 236
92 85 72 40 322 308 290 287 276 275 283 287 292 285 277 277 282 287 284 286 287 284 286 286 285 285 281 276 274 277 279 283 287 289 292 293 294 294 294 283 283 282 281 273 273 270 267 264 260 276 281 282 282 282 282 282 279 275 271 274 279 282 284 280 275 268 259 263 264 258 258 255 257 252 252 256 260 256 249 241 239 239 238 238 236
105 114 121 235 265 269 271 270 274 275 277 273 277 282 284 284 279 277 282 284 282 286 287 288 289 291 290 282 275 275 276 275 281 284 287 291 294 296 296 295 292 289 283 280 275 272 268 270 270 278 280 280 280 280 279 278 281 281 280 279 279 282 284 280 276 275 273 270 268 269 269 264 257 253 247 250 252 258 261 253 245 241 240 241 239
116 129 207 254 270 275 265 268 268 269 269 276 274 279 284 278 277 272 275 277 285 287 286 289 291 292 298 297 286 276 273 272 272 278 284 290 298 300 297 293 293 288 285 282 283 280 282 279 275 276 279 279 277 277 282 287 292 291 292 292 292 292 292 293 290 282 278 275 272 272 270 267 266 263 263 260 258 255 258 256 248 241 240 240 240
138 200 243 259 264 261 272 267 267 266 265 264 273 274 278 274 280 267 267 277 276 282 286 284 286 292 293 292 293 287 276 267 267 268 281 292 296 296 294 293 292 291 289 282 274 274 276 279 280 281 284 288 293 297 298 295 290 287 286 285 285 285 283 271 271 270 268 266 267 268 265 264 264 265 269 271 272 267 258 257 256 251 242 237 237
178 221 240 250 252 260 270 273 265 261 262 255 252 257 264 273 272 279 271 270 269 272 282 284 282 283 283 286 288 289 283 279 279 279 279 281 282 286 288 287 288 287 285 283 284 285 286 287 287 290 292 291 288 283 276 276 278 281 283 286 288 280 271 268 259 260 261 267 266 266 265 266 261 263 268 266 265 262 263 259 252 248 239 236 234
203 224 239 246 258 254 256 265 270 264 260 258 252 255 258 263 266 270 266 269 270 265 270 277 280 276 280 286 289 287 285 286 288 288 286 288 284 281 281 276 276 279 278 274 276 277 274 275 272 272 274 277 278 280 283 285 286 285 284 280 273 270 265 257 260 262 264 264 264 262 264 263 262 257 251 256 257 255 251 257 255 247 234 230 231
204 225 234 235 248 247 250 260 263 269 261 258 267 268 259 253 259 259 258 259 266 270 264 267 271 275 273 275 281 285 290 288 283 286 285 279 281 282 276 280 284 273 275 272 266 266 266 269 272 274 274 271 272 264 263 264 269 274 272 269 265 263 263 265 266 261 258 257 257 264 264 264 261 259 257 251 251 253 247 247 249 246 237 231 230
212 226 235 237 247 245 243 251 259 264 273 262 251 248 260 263 261 265 248 235 238 251 257 242 243 246 253 275 287 268 288 291 288 299 300 305 307 304 300 296 293 290 292 297 296 291 281 275 254 264 259 268 269 270 272 269 264 261 262 262 261 261 262 255 257 255 258 259 258 258 261 258 260 259 261 261 260 258 247 244 240 241 234 222 225
213 233 234 235 244 249 258 258 258 262 265 276 277 271 251 266 265 258 261 266 267 269 275 277 282 287 283 268 276 293 294 295 303 306 307 306 306 307 309 309 307 305 307 311 315 312 307 300 300 299 298 299 293 286 282 279 280 276 274 276 276 271 263 261 258 261 256 254 257 258 260 263 266 265 267 268 270 265 252 237 237 231 230 222 220
215 230 230 237 237 243 251 262 264 264 265 271 273 282 292 275 278 279 276 278 281 283 286 287 291 293 293 297 299 299 300 303 305 307 310 311 311 311 309 308 310 315 321 323 318 308 307 309 307 302 295 290 285 283 284 284 283 280 277 274 268 269 272 267 265 260 260 258 257 256 258 260 266 269 269 269 269 263 248 236 233 225 223 221 218
215 225 224 237 249 258 259 260 269 268 272 269 274 286 290 303 297 284 286 290 293 294 292 292 293 296 301 305 307 302 304 306 311 314 315 314 313 312 315 318 319 322 323 323 314 316 316 310 304 299 293 286 285 290 290 288 289 290 288 286 283 275 271 266 261 258 261 260 258 261 260 263 261 266 269 272 270 260 242 237 224 223 216 211 209
213 229 229 242 247 255 263 263 266 266 273 278 279 277 289 295 306 315 311 307 307 301 297 295 299 307 314 313 312 311 314 317 318 319 317 316 317 322 323 325 327 326 326 329 327 318 316 313 307 305 305 302 299 298 295 291 290 290 289 286 285 281 271 267 267 266 262 256 257 256 259 260 267 268 268 270 273 263 251 246 235 220 214 208 204
212 215 228 232 241 249 253 257 260 265 261 268 269 277 272 277 286 292 311 322 329 328 322 288 298 317 317 316 317 321 323 323 324 322 324 327 330 329 332 336 328 328 332 325 322 313 311 303 301 302 304 300 301 301 299 296 296 293 291 288 283 283 278 275 272 265 257 255 253 254 256 256 255 262 268 273 271 266 257 249 236 234 223 210 199
220 235 242 243 230 244 250 257 260 263 264 263 268 271 274 273 277 294 303 307 312 310 312 317 318 324 326 324 325 327 328 328 329 332 336 338 337 339 345 337 331 331 332 321 309 305 304 308 308 310 312 309 305 302 300 300 301 298 293 293 292 288 287 281 271 262 257 255 254 251 251 257 263 263 265 270 273 266 253 246 243 226 222 206 199
223 235 237 243 245 245 253 250 255 255 257 263 255 258 270 285 289 285 286 289 288 295 301 303 303 314 322 328 328 331 334 335 338 345 346 344 343 351 344 333 329 325 323 319 315 311 311 310 311 306 306 302 303 300 299 298 298 295 291 296 300 297 295 289 278 266 261 258 257 260 262 261 258 262 268 273 273 269 255 240 230 228 220 213 201
222 229 238 241 238 247 254 251 251 251 263 267 273 285 281 276 277 277 283 278 284 285 287 299 312 314 321 315 324 330 329 335 343 348 347 345 345 346 318 320 315 316 317 318 318 317 313 309 303 300 299 299 298 297 297 298 298 299 305 307 302 303 299 291 278 264 263 261 259 259 260 261 264 266 268 271 272 268 261 245 227 215 208 203 194
223 229 238 241 248 252 252 249 249 258 265 276 275 271 276 275 270 273 279 282 285 293 297 301 304 307 313 316 325 320 318 332 338 342 344 345 341 330 323 314 314 309 310 309 312 310 308 307 304 300 298 296 296 298 301 300 302 306 308 305 307 306 311 311 299 283 270 263 264 262 260 261 262 264 265 263 264 269 266 246 213 196 197 199 185
222 236 245 259 263 248 235 248 258 263 269 267 267 268 273 274 280 279 273 275 282 286 284 291 295 299 302 306 314 310 323 341 345 338 335 336 334 329 324 320 316 314 311 308 307 308 304 303 304 303 300 301 302 303 303 302 304 308 309 308 308 309 311 312 313 309 301 286 277 271 269 270 268 265 261 258 256 251 243 222 218 214 193 189 188
219 224 246 257 258 270 275 272 268 265 268 272 268 260 264 272 275 275 277 281 285 285 287 291 295 292 298 305 293 317 339 339 336 329 326 327 330 331 329 326 326 321 319 315 312 309 307 303 302 302 304 304 304 302 304 305 306 305 308 311 311 310 309 311 314 316 312 309 301 294 285 277 271 269 262 250 250 242 236 222 210 199 199 198 200
214 222 224 240 252 255 265 266 264 262 260 256 257 264 263 268 266 270 275 277 280 283 286 284 283 288 291 298 319 337 349 337 323 320 316 317 319 322 325 323 322 318 315 313 311 309 308 307 307 307 306 305 305 307 307 308 308 308 310 313 313 311 312 313 318 318 317 315 312 309 304 300 293 285 270 256 248 242 229 218 209 207 204 203 180
210 216 224 237 248 256 258 256 256 258 260 266 268 263 263 263 265 269 273 277 280 283 289 287 286 287 297 313 325 336 344 316 310 305 307 308 309 311 312 312 309 308 310 311 313 314 314 314 312 311 311 312 312 314 316 316 317 318 316 312 314 318 317 319 321 320 321 317 315 313 310 308 309 307 301 301 299 277 211 205 191 180 168 156 150
203 213 220 233 234 237 240 252 257 260 264 258 260 260 260 261 266 268 273 273 274 282 284 293 297 299 300 311 324 331 325 304 304 309 305 308 307 310 310 312 312 311 312 309 310 311 312 313 315 315 315 315 314 315 320 322 322 321 320 318 317 319 320 318 317 319 319 319 317 317 319 320 328 336 351 360 1 27 69 116 121 131 137 134 138
206 221 224 232 237 243 247 249 256 254 256 258 262 262 264 268 266 267 267 269 272 271 273 280 286 300 302 310 318 323 318 321 317 314 313 312 312 313 313 313 315 316 317 317 317 317 318 317 318 318 318 318 320 318 316 319 324 324 324 320 317 321 323 320 316 318 317 315 318 322 322 326 332 341 353 5 10 45 59 102 119 128 132 133 131
204 215 230 241 245 243 253 247 245 253 259 267 269 268 268 263 267 263 262 269 272 274 275 277 287 294 300 303 314 318 317 315 313 313 312 313 313 312 314 316 319 320 320 320 321 321 321 321 319 322 324 327 328 329 326 322 322 325 326 324 317 318 325 324 318 316 316 317 319 323 330 336 338 342 348 355 12 52 68 78 106 119 118 128 140
204 214 226 231 242 247 246 246 245 247 252 255 259 265 260 259 258 259 266 265 270 276 279 285 289 289 290 299 304 311 311 314 312 311 309 312 313 314 315 316 316 317 319 319 320 323 322 323 324 323 325 328 331 332 333 332 329 325 326 328 329 324 321 320 321 323 325 328 328 327 330 338 347 347 360 4 15 34 56 70 74 84 107 111 115
209 213 221 227 236 242 244 242 245 245 245 251 252 257 265 260 258 262 267 273 276 279 287 291 294 294 295 299 304 307 310 313 310 312 309 307 309 311 315 317 318 319 320 320 320 322 324 325 326 326 324 325 328 333 337 338 337 333 330 332 334 338 334 333 329 330 329 329 333 337 340 343 349 350 359 12 24 39 50 54 57 82 84 105 112
211 214 222 227 232 240 246 244 248 252 249 252 253 258 261 268 274 273 273 276 280 282 285 287 284 283 290 293 294 295 300 299 301 299 303 304 308 312 316 318 320 321 319 319 321 323 324 325 325 325 326 327 329 333 337 341 342 340 339 340 342 344 344 344 339 340 336 338 341 347 350 353 359 3 10 18 27 31 50 54 62 65 81 88 101
209 212 224 227 229 232 238 240 238 239 243 246 255 263 264 271 271 272 273 275 276 278 276 280 282 281 279 281 289 294 297 302 303 304 304 306 310 314 316 317 317 318 318 318 320 324 323 324 325 324 325 327 328 329 336 339 344 344 342 342 345 347 351 357 354 350 350 347 348 352 359 7 10 15 20 28 31 37 49 48 57 66 70 74 82
216 218 222 226 231 236 236 234 238 243 242 245 250 257 263 265 272 270 273 276 280 280 277 272 274 278 283 292 300 301 306 307 306 305 305 307 310 313 315 317 317 317 318 317 320 320 322 322 324 324 326 326 329 329 333 337 341 345 345 344 347 353 356 1 359 4 3 353 353 355 358 11 14 20 20 27 31 42 47 49 50 56 61 69 71
224 224 224 226 229 235 232 235 242 239 240 244 242 247 257 258 257 265 269 272 272 275 276 273 272 276 278 275 280 288 294 293 291 293 298 304 308 312 313 315 317 317 315 317 318 319 321 322 323 324 325 326 329 330 330 334 341 344 347 352 354 359 2 7 7 8 10 9 357 0 7 13 21 21 22 21 35 42 55 59 59 60 64 67 74